TimeCDT,TemperatureF,Dew PointF,Humidity,Sea Level PressureIn,VisibilityMPH,Wind Direction,Wind SpeedMPH,Gust SpeedMPH,PrecipitationIn,Events,Conditions,WindDirDegrees,DateUTC
12:15 AM,64.4,50.0,59,29.97,10.0,NNW,8.1,-,N/A,,Clear,330,2013-08-03 05:15:00
12:35 AM,64.4,50.0,59,29.97,10.0,NNW,9.2,-,N/A,,Clear,340,2013-08-03 05:35:00
12:55 AM,64.4,50.0,59,29.98,10.0,North,8.1,-,N/A,,Clear,350,2013-08-03 05:55:00
1:15 AM,62.6,50.0,63,29.99,10.0,North,5.8,-,N/A,,Clear,360,2013-08-03 06:15:00
1:35 AM,62.6,50.0,63,29.99,10.0,North,4.6,-,N/A,,Clear,360,2013-08-03 06:35:00
1:55 AM,60.8,50.0,68,30.00,10.0,North,4.6,-,N/A,,Clear,350,2013-08-03 06:55:00
2:15 AM,60.8,50.0,68,30.00,10.0,NNW,3.5,-,N/A,,Clear,340,2013-08-03 07:15:00
2:35 AM,59.0,50.0,72,30.01,10.0,Calm,Calm,-,N/A,,Clear,0,2013-08-03 07:35:00
2:55 AM,60.8,50.0,68,30.01,10.0,Calm,Calm,-,N/A,,Clear,0,2013-08-03 07:55:00
3:15 AM,59.0,50.0,72,30.01,10.0,Calm,Calm,-,N/A,,Clear,0,2013-08-03 08:15:00
3:35 AM,55.4,50.0,82,30.01,10.0,Calm,Calm,-,N/A,,Clear,0,2013-08-03 08:35:00
3:55 AM,55.4,50.0,82,30.02,10.0,Calm,Calm,-,N/A,,Clear,0,2013-08-03 08:55:00
4:15 AM,57.2,50.0,77,30.02,10.0,Calm,Calm,-,N/A,,Clear,0,2013-08-03 09:15:00
4:35 AM,55.4,50.0,82,30.03,10.0,Calm,Calm,-,N/A,,Clear,0,2013-08-03 09:35:00
4:55 AM,57.2,50.0,77,30.03,10.0,Calm,Calm,-,N/A,,Clear,0,2013-08-03 09:55:00
5:15 AM,57.2,50.0,77,30.03,10.0,Calm,Calm,-,N/A,,Clear,0,2013-08-03 10:15:00
5:35 AM,55.4,50.0,82,30.03,10.0,Calm,Calm,-,N/A,,Clear,0,2013-08-03 10:35:00
5:55 AM,53.6,50.0,88,30.04,10.0,Calm,Calm,-,N/A,,Clear,0,2013-08-03 10:55:00
6:15 AM,55.4,50.0,82,30.04,10.0,Calm,Calm,-,N/A,,Clear,0,2013-08-03 11:15:00
6:35 AM,55.4,50.0,82,30.04,10.0,Calm,Calm,-,N/A,,Clear,0,2013-08-03 11:35:00
6:45 AM,57.2,50.0,77,30.04,10.0,Calm,Calm,-,N/A,,Clear,0,2013-08-03 11:45:00
6:55 AM,59.0,51.8,77,30.05,10.0,Calm,Calm,-,N/A,,Clear,0,2013-08-03 11:55:00
7:45 AM,64.4,51.8,64,30.06,10.0,Calm,Calm,-,N/A,,Clear,0,2013-08-03 12:45:00
8:45 AM,69.8,50.0,49,30.06,10.0,Calm,Calm,-,N/A,,Clear,0,2013-08-03 13:45:00
9:45 AM,71.6,48.2,43,30.07,10.0,North,5.8,-,N/A,,Clear,360,2013-08-03 14:45:00
10:45 AM,71.6,48.2,43,30.08,10.0,NNW,4.6,-,N/A,,Clear,330,2013-08-03 15:45:00
11:45 AM,71.6,48.2,43,30.08,10.0,WNW,6.9,-,N/A,,Scattered Clouds,290,2013-08-03 16:45:00
12:45 PM,71.6,48.2,43,30.09,10.0,NNW,8.1,-,N/A,,Mostly Cloudy,330,2013-08-03 17:45:00
1:45 PM,75.2,50.0,41,30.09,10.0,NNW,11.5,-,N/A,,Scattered Clouds,340,2013-08-03 18:45:00
2:45 PM,73.4,50.0,44,30.09,10.0,NW,12.7,-,N/A,,Scattered Clouds,310,2013-08-03 19:45:00
3:45 PM,75.2,48.2,38,30.09,10.0,NW,12.7,-,N/A,,Scattered Clouds,320,2013-08-03 20:45:00
4:45 PM,73.4,53.6,50,30.07,10.0,ENE,9.2,-,N/A,,Scattered Clouds,70,2013-08-03 21:45:00
5:45 PM,71.6,51.8,50,30.08,10.0,East,4.6,-,N/A,,Scattered Clouds,100,2013-08-03 22:45:00
6:45 PM,71.6,53.6,53,30.09,10.0,ESE,4.6,-,N/A,,Scattered Clouds,120,2013-08-03 23:45:00
7:45 PM,69.8,53.6,56,30.09,10.0,SE,3.5,-,N/A,,Clear,140,2013-08-04 00:45:00
8:45 PM,68.0,51.8,56,30.09,10.0,SE,4.6,-,N/A,,Clear,130,2013-08-04 01:45:00
9:15 PM,64.4,51.8,64,30.11,10.0,South,3.5,-,N/A,,Clear,190,2013-08-04 02:15:00
9:35 PM,62.6,51.8,68,30.11,10.0,Calm,Calm,-,N/A,,Scattered Clouds,0,2013-08-04 02:35:00
9:55 PM,62.6,51.8,68,30.11,10.0,Calm,Calm,-,N/A,,Scattered Clouds,0,2013-08-04 02:55:00
10:15 PM,62.6,51.8,68,30.12,10.0,Calm,Calm,-,N/A,,Clear,0,2013-08-04 03:15:00
10:35 PM,60.8,51.8,72,30.12,10.0,Calm,Calm,-,N/A,,Clear,0,2013-08-04 03:35:00
10:55 PM,62.6,51.8,68,30.12,10.0,Calm,Calm,-,N/A,,Clear,0,2013-08-04 03:55:00
11:15 PM,60.8,51.8,72,30.12,10.0,Calm,Calm,-,N/A,,Clear,0,2013-08-04 04:15:00
11:35 PM,60.8,53.6,77,30.13,10.0,Calm,Calm,-,N/A,,Clear,0,2013-08-04 04:35:00
11:55 PM,60.8,53.6,77,30.13,10.0,Calm,Calm,-,N/A,,Clear,0,2013-08-04 04:55:00